This is the latest recevied weather packets stored in our database for station/object OH6HPS. If no packets are shown the sender has not sent any weather packets the latest 10 day(s).
| Time | Temp. | Humidity | Pressure | Rain* | Wind** | Luminosity | Snow |
|---|---|---|---|---|---|---|---|
| 1777823782 | 15.56° C | 53% | 1007.1 hPa | 0 mm | - | 106 W/m² | - |
| 1777823182 | 15.56° C | 53% | 1007.4 hPa | 0 mm | - | 93 W/m² | - |
| 1777822582 | 15.56° C | 53% | 1007.3 hPa | 0 mm | - | 109 W/m² | - |
| 1777821981 | 15.56° C | 54% | 1007.3 hPa | 0 mm | - | 255 W/m² | - |
| 1777821380 | 15.56° C | 53% | 1007.3 hPa | 0 mm | - | 120 W/m² | - |
| 1777820781 | 15.56° C | 55% | 1007.4 hPa | 0 mm | - | 137 W/m² | - |
| 1777820180 | 15.56° C | 54% | 1007.4 hPa | 0 mm | - | 150 W/m² | - |
| 1777819580 | 16.11° C | 53% | 1007.4 hPa | 0 mm | - | 162 W/m² | - |
| 1777818980 | 15.56° C | 55% | 1007.3 hPa | 0 mm | - | 199 W/m² | - |
| 1777818379 | 15.56° C | 54% | 1007.4 hPa | 0 mm | - | 172 W/m² | - |
| 1777817781 | 16.11° C | 53% | 1007.5 hPa | 0 mm | - | 125 W/m² | - |
| 1777817179 | 16.67° C | 52% | 1007.4 hPa | 0 mm | - | 183 W/m² | - |
| 1777816580 | 16.67° C | 53% | 1007.5 hPa | 0 mm | - | 223 W/m² | - |
| 1777815978 | 16.67° C | 52% | 1007.6 hPa | 0 mm | - | 238 W/m² | - |
| 1777815378 | 16.67° C | 52% | 1007.6 hPa | 0 mm | - | 267 W/m² | - |
| 1777814778 | 16.67° C | 52% | 1007.6 hPa | 0 mm | - | 252 W/m² | - |
| 1777814178 | 16.67° C | 52% | 1007.6 hPa | 0 mm | - | 299 W/m² | - |
| 1777813578 | 16.67° C | 52% | 1007.6 hPa | 0 mm | - | 332 W/m² | - |
| 1777812978 | 16.67° C | 52% | 1007.7 hPa | 0 mm | - | 394 W/m² | - |
| 1777812377 | 16.67° C | 53% | 1007.7 hPa | 0 mm | - | 573 W/m² | - |
| 1777811804 | 16.67° C | 53% | 1007.8 hPa | 0 mm | - | 338 W/m² | - |
| 1777811179 | 16.11° C | 53% | 1007.8 hPa | 0 mm | - | 331 W/m² | - |
| 1777810576 | 16.67° C | 52% | 1007.6 hPa | 0 mm | - | 283 W/m² | - |
| 1777809975 | 17.22° C | 53% | 1007.7 hPa | 0 mm | - | 382 W/m² | - |
| 1777809376 | 16.67° C | 54% | 1007.8 hPa | 0 mm | - | 561 W/m² | - |
* Rain latest hour (hover to see other rain measurements)
** Current wind speed in m/s (hover to see current wind gust speed)